Hourly Data Report for October 04, 2017

All times are specified in Local Standard Time (LST). Add 1 hour to adjust for Daylight Saving Time where and when it is observed.

PORTAGE SOUTHPORT
MANITOBA

49°54'11.300" N
98°17'02.900" W
272.70 m
5012324
71851
WPG

Download Data

Hourly Data (October 2017)
Hourly Data Report for October 4, 2017
Temp Definition
°C
Dew Point Temp Definition
°C
Rel Hum Definition
%
Wind Dir Definition
10's deg

Wind Spd Definition
km/h
Visibility Definition
km
Stn Press Definition
kPa
Hmdx Definition


Wind Chill Definition


Weather Definition


TIME
00:00 6.7 1.6 70 23 9   98.81     LegendNANA
01:00 7.0 2.1 71 24 9   98.85     LegendNANA
02:00 7.1 2.8 74 25 8   98.90     LegendNANA
03:00 7.5 4.1 79 27 8   98.90     LegendNANA
04:00 7.8 4.7 81 27 11   98.91     LegendNANA
05:00 7.7 4.3 79 25 14   98.93     LegendNANA
06:00 6.0 3.6 85 26 11   98.95     LegendNANA
07:00 5.3 2.8 84 26 12   98.98     LegendNANA
08:00 6.0 2.2 77 26 17   98.99     LegendNANA
09:00 8.0 2.7 69 25 17   98.97     LegendNANA
10:00 9.1 2.1 61 25 18   98.95     LegendNANA
11:00 10.7 1.6 53 25 20   98.91     LegendNANA
12:00 11.8 0.5 46 26 19   98.86     LegendNANA
13:00 12.8 1.7 47 24 20   98.76     LegendNANA
14:00 13.7 1.4 43 24 15   98.69     LegendNANA
15:00 14.1 1.4 42 25 17   98.66     LegendNANA
16:00 14.2 1.4 42 25 15   98.61     LegendNANA
17:00 13.6 0.6 41 25 13   98.59     LegendNANA
18:00 11.4 2.6 55 23 13   98.58     LegendNANA
19:00 9.0 2.5 64 23 9   98.65     LegendNANA
20:00 7.9 2.4 68 22 13   98.64     LegendNANA
21:00 7.0 2.5 73 22 12   98.65     LegendNANA
22:00 6.6 2.4 75 23 11   98.66     LegendNANA
23:00 5.7 2.1 78 23 10   98.67     LegendNANA

Notes on Data Quality.

Legend

  • E = Estimated
  • M = Missing
  • NA = Not Available
  • ‡ = Partner data that is not subject to review by the National Climate Archives
Date modified: